Regional Weather Roundup
Issued by NWS

Current Version | Previous Version | Text Only | Print | Product List | Glossary On
Versions: 1 2 3 4 5 6 7 8 9 10 11 12 13 14 15 16 17 18 19 20 21 22 23 24 25 26 27 28 29 30 31 32 33 34 35 36 37 38 39 40 41 42 43 44 45 46 47 48 49 50
000
ASUS44 KLIX 230913
RWRLA
LOUISIANA WEATHER ROUNDUP
NATIONAL WEATHER SERVICE NEW ORLEANS LA
400 AM CDT SAT SEP 23 2017

NOTE: "FAIR" INDICATES FEW OR NO CLOUDS BELOW 12,000 FEET WITH NO
      SIGNIFICANT WEATHER AND/OR OBSTRUCTIONS TO VISIBILITY.
      SKY/WX - SKY CONDITION AND SIGNIFICANT WEATHER.
      TMP - AIR TEMPERATURE.    DP   - DEWPOINT TEMPERATURE.
      RH  - RELATIVE HUMIDITY.  PRES - PRESSURE.
      HX  - HEAT INDEX.         WCI  - WIND CHILL INDEX.

*  THESE STATIONS ARE NOT NWS OR FAA STATIONS AND ARE NOT UNDER
   NWS QUALITY CONTROL.

LAZ040-048-061>063-065-066-069-231000-
SOUTHEAST LOUISIANA

CITY           SKY/WX    TMP DP  RH WIND       PRES   REMARKS
N.O. INTL ARPT PTCLDY    73  73 100 W3        29.92S
N.O. LAKEFRONT NOT AVBL
N.O. DOWNTOWN* NOT AVBL
RESERVE*       FAIR      75  72  92 CALM      29.93S FOG
SLIDELL        NOT AVBL
BATON ROUGE    CLEAR     72  70  93 CALM      29.92F
BOOTHVILLE     CLEAR     79  75  87 E3        29.92S
BELLE CHASSE   NOT AVBL
BOGALUSA*      FAIR      71  67  89 CALM      29.95F
GALLIANO*      MOSUNNY   73  70  91 CALM      29.91F
NEW ROADS*     FAIR      70  69  96 CALM      29.92F
GONZALES*      FAIR      72  71  98 CALM      29.92S
HAMMOND*       CLEAR     73  70  88 CALM      29.93F
HOUMA*         NOT AVBL
PORT FOURCHON* SUNNY     82  73  74 E6        29.91F

$$

LAZ041-044-053-054-231000-
SOUTHWEST LOUISIANA

CITY           SKY/WX    TMP DP  RH WIND       PRES   REMARKS
LAKE CHARLES   NOT AVBL
LAFAYETTE      NOT AVBL
PATTERSON      NOT AVBL
SALT POINT       N/A     74  72  93 CALM      29.90F
NEW IBERIA     NOT AVBL
CHENAULT AIRPK   N/A     73  72  96 CALM      29.92S

$$

LAZ027-028-231000-
CENTRAL LOUISIANA

CITY           SKY/WX    TMP DP  RH WIND       PRES   REMARKS
FORT POLK      CLEAR     72  69  90 CALM      29.92S
ALEXANDRIA INT NOT AVBL
ALEXANDRIA     NOT AVBL

$$

LAZ001-002-231000-
NORTHWEST LOUISIANA

CITY           SKY/WX    TMP DP  RH WIND       PRES   REMARKS
SHREVEPORT     CLEAR     72  71  97 CALM      29.93S
BARKSDALE AFB  CLEAR     71  71 100 CALM      29.93S
DTN SHREVEPORT CLEAR     74  71  91 CALM      29.93S

$$

LAZ014-016-231000-
NORTHEAST LOUISIANA

CITY           SKY/WX    TMP DP  RH WIND       PRES   REMARKS
MONROE         CLEAR     71  71 100 CALM      29.94S FOG
TALLULAH       CLEAR     69  69 100 CALM      29.94S

$$




USA.gov is the U.S. government's official web portal to all federal, state and local government web resources and services.